User: anonymous   Login
Location: Newark
(50.8667°N, 3.7167°E)
Time: 05:29:04
(UTC+00:00)
Language:

Starlink (trailer) - Orbit

View from above orbital plane
View from above orbital plane
View from above satellite
View from above satellite

Ground track
Ground track

The orbit data is extracted from the following two-line orbital elements,

1 44284U 19029BB  19257.51882006  .00000833  00000-0  76505-4 0  9998
2 44284  53.0042  22.8218 0001709 118.0595 242.0566 15.05499856 17237
Epoch (UTC): 14 September 2019 12:27:06
Eccentricity: 0.0001709
inclination: 53.0042°
perigee height: 549 km
apogee height: 551 km
right ascension of ascending node: 22.8218°
argument of perigee: 118.0595°
revolutions per day: 15.05499856
mean anomaly at epoch: 242.0566°
orbit number at epoch: 1723

The dashed part of the orbit path shows where the satellite is in the earth's shadow,  

DLR